Current Conditions
Overcast
Conditions



Pressure
1009.92 (mb) - 29.82 (inHG)
Visibility

10.0 (km) - 6.2 (miles)
   Temperature
13  °C
55°F
8  °C
Dewpoint
72  %
 Humidity
   Wind Speed
8  km/h
4  kts
5  mph
2.2  m/s
   Wind Direction
 140°
South East
   Airport Data
LELN
Location Leon 15 km (9.32 mi)
Metar :LELN 140100Z AUTO 14004KT 110V170 9999 OVC037 13/08 Q1010
Mon 14th October 03:00 am
   Raw Metar Info
Raw METAR is the most common format in the world for the transmission of observational weather data. It is highly standardized through the International Civil Aviation Organization (ICAO), which allows it to be understood throughout most of the world.
   API Info
Data Provided by
https://www.checkwx.com/weather/LELN
   © Info
CSS/SVG/PHP scripts were developed by weather34.com for use in the weather34 template © 2015-2019

Guide Info provided by Metar-Wikipedia